Location: Couloutre
(47.4081°N, 3.2259°E)
Time: 18:56:52
(UTC+00:00)

STARLINK-80 - Pass Details

Date: 27 February 2020
Orbit: 490 x 494 km, 53.0° (Epoch: 28 March)

Event Time Altitude Azimuth Distance (km) Brightness Sun altitude
Rises 19:16:15 0° 298° (WNW) 2,582 8.4 -19.0°
Reaches altitude 10° 19:18:26 10° 298° (WNW) 1,697 7.2 -19.4°
Maximum altitude 19:22:16 87° 210° (SSW) 501 3.3 -20.0°
Enters shadow 19:22:46 66° 126° (SE) 543 3.3 -20.1°
